Total_Precipitation_Accumulation
0.30 0.35 0.44 0.59 0.53 0.37 0.16 0.05 0.02 0.03 0.05 0.05 0.07 0.09 0.10 0.14 0.20 0.29 0.27 0.29 0.29 0.30 0.47 0.81 1.14 1.21 1.14 1.05 1.00 0.95 0.96 1.01 1.06 1.10 1.13 1.11 1.07 1.06 1.12 1.17 1.18 1.21 1.26 1.36 1.41 1.33 1.26 1.11 0.89
0.35 0.50 0.72 0.82 0.56 0.33 0.17 0.06 0.03 0.02 0.05 0.05 0.07 0.08 0.12 0.15 0.18 0.22 0.28 0.35 0.39 0.41 0.52 0.74 1.12 1.28 1.27 1.18 1.07 1.04 1.07 1.06 1.16 1.18 1.22 1.29 1.25 1.18 1.19 1.20 1.18 1.15 1.15 1.21 1.21 1.06 0.96 0.84 0.69
0.57 0.79 0.99 0.91 0.61 0.31 0.16 0.08 0.04 0.04 0.05 0.06 0.08 0.12 0.19 0.22 0.22 0.27 0.33 0.40 0.51 0.59 0.62 0.86 1.18 1.38 1.43 1.37 1.22 1.17 1.19 1.16 1.21 1.25 1.35 1.43 1.44 1.31 1.22 1.15 1.13 1.07 1.01 0.92 0.89 0.83 0.75 0.69 0.59
0.92 1.20 1.22 0.96 0.54 0.24 0.12 0.10 0.07 0.07 0.06 0.06 0.10 0.16 0.22 0.23 0.28 0.33 0.40 0.50 0.55 0.72 0.82 1.07 1.40 1.58 1.64 1.54 1.43 1.37 1.36 1.30 1.30 1.28 1.33 1.46 1.56 1.47 1.30 1.12 0.99 0.92 0.87 0.79 0.71 0.68 0.70 0.64 0.54
1.26 1.42 1.27 0.88 0.41 0.19 0.10 0.11 0.10 0.10 0.10 0.10 0.12 0.18 0.30 0.30 0.37 0.51 0.53 0.59 0.64 0.77 0.93 1.20 1.57 1.78 1.89 1.84 1.78 1.73 1.68 1.56 1.47 1.41 1.41 1.48 1.53 1.41 1.26 1.04 0.89 0.84 0.84 0.81 0.69 0.66 0.65 0.66 0.59
1.50 1.56 1.21 0.71 0.33 0.17 0.11 0.12 0.15 0.15 0.14 0.16 0.21 0.28 0.42 0.47 0.57 0.70 0.75 0.75 0.75 0.82 1.05 1.36 1.74 1.87 1.97 2.01 1.99 1.95 1.89 1.79 1.69 1.59 1.56 1.56 1.52 1.37 1.21 1.07 0.93 0.85 0.85 0.87 0.77 0.69 0.65 0.64 0.60
1.45 1.40 0.99 0.53 0.30 0.20 0.14 0.14 0.19 0.20 0.19 0.21 0.25 0.35 0.54 0.72 0.88 0.94 1.02 1.07 1.06 1.08 1.29 1.54 1.82 1.97 2.10 2.05 1.99 2.02 1.95 1.88 1.77 1.69 1.59 1.48 1.41 1.32 1.20 1.06 0.96 0.90 0.87 0.91 0.86 0.75 0.66 0.63 0.60
1.41 1.58 0.94 0.52 0.33 0.25 0.17 0.17 0.20 0.26 0.26 0.22 0.29 0.41 0.57 0.81 1.10 1.28 1.41 1.53 1.53 1.52 1.67 1.82 1.94 2.01 2.08 2.03 1.97 2.04 2.04 2.01 1.97 1.83 1.57 1.38 1.28 1.30 1.20 1.02 0.96 0.90 0.86 0.89 0.88 0.82 0.70 0.62 0.54
1.38 1.75 1.05 0.51 0.41 0.31 0.25 0.24 0.25 0.29 0.36 0.32 0.33 0.42 0.60 0.89 1.33 1.61 1.93 2.01 2.04 2.06 2.02 2.13 2.19 2.21 2.23 2.19 2.08 2.16 2.19 2.16 2.07 1.97 1.68 1.47 1.41 1.34 1.22 1.03 0.91 0.87 0.83 0.83 0.88 0.83 0.76 0.64 0.49
1.40 1.46 0.93 0.54 0.47 0.43 0.41 0.38 0.39 0.45 0.50 0.48 0.44 0.59 0.85 1.26 1.71 1.93 1.96 2.05 2.11 2.32 2.26 2.27 2.34 2.27 2.31 2.31 2.31 2.37 2.30 2.25 2.13 1.89 1.79 1.69 1.58 1.43 1.24 1.13 0.99 0.92 0.86 0.86 0.93 0.88 0.75 0.64 0.52
1.07 0.92 0.72 0.63 0.53 0.54 0.55 0.53 0.48 0.56 0.55 0.53 0.46 0.62 0.99 1.52 1.95 2.26 2.38 2.24 2.26 2.41 2.50 2.49 2.56 2.52 2.41 2.45 2.38 2.43 2.42 2.36 2.29 2.09 1.94 1.91 1.89 1.69 1.50 1.32 1.26 1.14 1.01 1.01 0.97 0.95 0.71 0.56 0.49
0.85 0.66 0.67 0.75 0.65 0.62 0.63 0.63 0.58 0.59 0.58 0.55 0.55 0.67 1.00 1.47 1.96 2.26 2.59 2.53 2.63 2.71 2.73 2.79 2.77 2.80 2.60 2.50 2.45 2.48 2.49 2.42 2.31 2.10 1.99 1.94 1.87 1.78 1.60 1.39 1.24 1.20 1.04 1.01 0.98 0.84 0.69 0.60 0.52
0.75 0.68 0.66 0.75 0.74 0.66 0.64 0.65 0.65 0.62 0.63 0.66 0.74 0.90 1.12 1.50 2.02 2.39 2.80 2.94 2.95 2.97 3.04 3.10 2.98 2.98 2.91 2.71 2.55 2.54 2.64 2.60 2.47 2.29 2.09 1.92 1.78 1.67 1.63 1.56 1.44 1.30 1.16 1.04 1.00 0.89 0.79 0.71 0.62
0.65 0.69 0.71 0.77 0.81 0.72 0.71 0.64 0.66 0.66 0.71 0.82 0.86 0.98 1.18 1.55 1.98 2.42 2.85 3.10 3.00 3.18 3.38 3.43 3.28 3.10 3.07 2.89 2.61 2.53 2.68 2.77 2.81 2.54 2.23 2.18 2.01 1.87 1.77 1.68 1.59 1.44 1.32 1.21 1.12 1.00 0.97 0.88 0.78
0.68 0.79 0.83 0.81 0.80 0.79 0.82 0.83 0.69 0.65 0.80 0.91 0.91 1.03 1.18 1.46 1.91 2.30 2.61 2.83 2.93 3.07 3.42 3.61 3.54 3.44 3.25 3.16 2.94 2.64 2.76 2.88 2.92 2.79 2.52 2.44 2.32 2.16 2.07 1.91 1.72 1.49 1.38 1.36 1.35 1.31 1.26 1.16 0.96
1.02 1.13 1.04 0.79 0.77 0.78 0.96 0.96 0.68 0.66 0.78 0.89 0.95 1.04 1.15 1.32 1.75 2.20 2.45 2.69 2.95 3.03 3.23 3.58 3.66 3.70 3.56 3.37 3.21 2.87 2.77 2.89 2.89 2.76 2.64 2.54 2.45 2.34 2.26 2.09 1.88 1.72 1.62 1.55 1.50 1.49 1.44 1.32 1.12
1.45 1.26 0.86 0.72 0.73 0.80 0.89 0.92 0.71 0.63 0.75 0.83 0.94 1.01 1.09 1.18 1.49 1.99 2.34 2.55 2.87 3.00 3.15 3.45 3.62 3.75 3.89 3.83 3.69 3.32 2.99 2.98 2.99 2.84 2.63 2.55 2.48 2.42 2.33 2.18 2.01 1.92 1.84 1.72 1.60 1.57 1.53 1.47 1.32
1.09 0.85 0.66 0.69 0.70 0.70 0.75 0.80 0.77 0.73 0.80 0.81 0.92 1.05 1.10 1.13 1.27 1.65 2.17 2.44 2.94 3.24 3.39 3.49 3.70 3.96 4.22 4.40 4.27 4.02 3.51 3.17 3.07 2.98 2.78 2.57 2.49 2.44 2.37 2.27 2.16 2.04 2.00 1.91 1.78 1.65 1.58 1.53 1.53
0.79 0.72 0.62 0.60 0.59 0.68 0.73 0.78 0.85 0.83 0.80 0.85 0.96 1.06 1.11 1.13 1.24 1.55 2.02 2.35 2.82 3.33 3.55 3.66 3.71 3.97 4.32 4.32 4.12 3.91 3.64 3.36 3.11 3.01 2.97 2.78 2.61 2.48 2.41 2.29 2.28 2.19 2.06 1.98 1.94 1.92 1.89 1.79 1.77
0.98 0.90 0.71 0.65 0.59 0.73 0.75 0.79 0.80 0.81 0.83 0.84 0.93 1.02 1.04 1.03 1.19 1.49 1.83 2.21 2.47 3.08 3.47 3.54 3.74 4.00 4.27 4.20 4.10 4.02 3.98 3.79 3.50 3.33 3.08 2.92 2.76 2.58 2.49 2.40 2.28 2.24 2.16 2.05 2.00 1.99 2.08 2.15 2.14
1.10 0.94 0.73 0.74 0.81 0.80 0.82 0.92 0.78 0.76 0.75 0.76 0.92 1.03 1.03 1.00 1.15 1.39 1.64 1.96 2.16 2.55 3.05 3.28 3.43 3.79 4.06 4.25 4.60 4.62 4.45 4.13 3.67 3.38 3.21 3.04 3.02 2.86 2.63 2.57 2.46 2.30 2.21 2.12 2.03 1.90 1.87 2.00 2.18
1.12 0.75 0.73 0.77 1.02 1.10 0.91 1.19 0.88 0.78 0.75 0.78 0.95 1.06 1.10 1.04 1.12 1.35 1.53 1.67 1.89 2.16 2.61 3.04 3.30 3.57 3.79 3.96 4.20 4.34 4.19 3.82 3.44 3.21 3.22 3.27 3.22 3.21 3.04 2.84 2.68 2.55 2.37 2.20 2.15 2.13 2.00 1.96 2.02
1.01 0.69 0.83 0.94 1.12 1.18 0.86 1.06 0.95 0.77 0.86 0.88 0.97 1.07 1.16 1.22 1.28 1.39 1.45 1.47 1.64 1.90 2.36 2.77 3.08 3.39 3.56 3.71 3.82 4.01 4.07 3.93 3.76 3.51 3.42 3.43 3.37 3.27 3.17 3.08 2.91 2.73 2.61 2.46 2.35 2.26 2.24 2.18 2.10
1.06 1.12 1.28 1.44 1.86 1.92 0.87 0.88 0.96 0.99 1.11 1.00 0.94 1.04 1.15 1.36 1.48 1.46 1.47 1.44 1.54 1.74 2.03 2.44 2.80 3.19 3.43 3.56 3.78 3.86 3.78 3.81 3.79 3.50 3.47 3.47 3.55 3.47 3.24 3.07 3.00 2.87 2.78 2.68 2.59 2.51 2.43 2.35 2.22
1.60 2.22 2.85 2.91 2.79 1.72 0.59 0.71 1.07 1.05 1.08 1.10 1.09 1.10 1.13 1.24 1.39 1.41 1.45 1.45 1.51 1.67 1.84 2.10 2.34 2.73 3.15 3.35 3.52 3.66 3.70 3.60 3.65 3.55 3.41 3.39 3.32 3.31 3.30 3.12 3.03 2.96 2.78 2.70 2.65 2.60 2.48 2.45 2.35
1.65 2.00 2.26 2.03 1.43 0.85 0.56 0.83 1.06 0.95 0.94 0.99 1.02 1.06 1.11 1.23 1.34 1.39 1.43 1.53 1.61 1.64 1.73 1.91 2.04 2.26 2.70 3.06 3.18 3.26 3.45 3.47 3.34 3.35 3.27 3.22 3.12 3.04 3.11 3.15 3.01 2.94 2.83 2.66 2.56 2.52 2.42 2.38 2.36
1.59 1.55 1.29 1.64 1.18 0.91 0.84 0.79 0.77 0.64 0.71 0.83 0.86 0.89 1.05 1.21 1.28 1.37 1.43 1.57 1.66 1.65 1.66 1.77 1.89 1.96 2.23 2.67 2.93 3.05 3.13 3.10 2.92 2.85 2.86 2.89 2.94 2.91 2.93 2.98 2.91 2.83 2.75 2.63 2.52 2.42 2.33 2.26 2.22
1.40 1.28 1.40 1.99 1.76 1.24 0.82 0.73 0.92 0.81 0.82 0.86 0.92 0.95 1.05 1.20 1.28 1.41 1.48 1.50 1.58 1.63 1.67 1.74 1.74 1.80 1.91 2.15 2.47 2.79 2.95 2.88 2.84 2.74 2.57 2.50 2.50 2.55 2.64 2.74 2.73 2.70 2.65 2.57 2.44 2.30 2.24 2.22 2.10
1.19 1.41 1.55 1.61 1.40 1.42 1.05 0.98 0.99 0.91 0.91 0.95 1.05 1.06 1.11 1.20 1.36 1.50 1.55 1.57 1.58 1.59 1.68 1.75 1.68 1.65 1.71 1.85 2.01 2.25 2.61 2.71 2.72 2.69 2.47 2.32 2.23 2.21 2.28 2.29 2.35 2.39 2.42 2.42 2.34 2.18 2.11 2.12 2.04
0.94 1.12 1.36 1.80 1.42 1.10 1.13 1.04 0.77 0.73 0.78 0.89 1.03 1.07 1.10 1.13 1.24 1.39 1.47 1.51 1.58 1.63 1.71 1.80 1.76 1.68 1.62 1.67 1.73 1.87 2.14 2.40 2.51 2.63 2.51 2.32 2.21 2.12 2.11 2.10 2.11 2.10 2.08 2.13 2.13 2.01 1.93 1.92 1.87